RS20S (GEOSCAN-EDELVEIS) (53385 NORAD) Tracking and Keplerian Element Data

This shows tracking and keplerian element data for the satellite.

Feedback or suggestion? Click here.




ElementValue
Catalog53385
NameRS20S (GEOSCAN-EDELVEIS)
Epoch Orbit748
Epoch Day270.19572907
Epoch Year2022
RAAN171.3649
Inclination97.4308
Eccentricity0.0002631
Argument of Perigee291.2619
Mean Anonmoly218.7993
Mean Motion15.26067603
Decay Rate0.00010239
L11 53385U 22096R 22270.19572907 .00010239 00000+0 40003-3 0 9990
L22 53385 97.4308 171.3649 0002631 291.2619 218.7993 15.26067603 7484

Live tracking and technical data element details for RS20S (GEOSCAN-EDELVEIS) (NORAD 53385). RS20S (GEOSCAN-EDELVEIS) can be tracked NOW for your location showing map with azimuth and elevation plus other details from your city location.

Track the satellite on the map from your city or location and see movement details for azimuth, elevation, latitude, longitude, range, height, and movement on the map or in text.







IsCatalogInMostPopularTable: catalog: 53385, numindb: 3
Update: records affected: 1



GetName: 53385 RS20S (GEOSCAN-EDELVEIS)

Hit Count: updated at: Thu, 29 Sep 2022 12:17:20 GMT